Hourly Data Report for October 23, 2014

All times are specified in Local Standard Time (LST). Add 1 hour to adjust for Daylight Saving Time where and when it is observed.

RANKIN INLET A
NUNAVUT

62°48'38.000" N
92°06'53.000" W
32.30 m
2303405
71083
YRT

Download Data

Hourly Data (October 2014)
Hourly Data Report for October 23, 2014
Temp Definition
°C
Dew Point Temp Definition
°C
Rel Hum Definition
%
Wind Dir Definition
10's deg

Wind Spd Definition
km/h
Visibility Definition
km
Stn Press Definition
kPa
Hmdx Definition


Wind Chill Definition


Weather Definition


TIME
00:00 Legend Double Dagger -2.7 -3.8 92 6 23 16.1 101.44   -9 Cloudy
01:00 Legend Double Dagger -3.2 -4.3 92 6 26 16.1 101.49   -10 LegendNANA
02:00 Legend Double Dagger -3.3 -4.3 93 6 23 16.1 101.57   -10 LegendNANA
03:00 Legend Double Dagger -3.3 -4.4 92 7 24 16.1 101.63   -10 Cloudy
04:00 Legend Double Dagger -3.3 -4.6 91 7 27 16.1 101.68   -10 LegendNANA
05:00 Legend Double Dagger -3.3 -4.6 91 7 26 12.9 101.72   -10 LegendNANA
06:00 Legend Double Dagger -3.2 -4.6 90 6 28 16.1 101.81   -10 Snow
07:00 Legend Double Dagger -3.1 -4.5 90 7 32 16.1 101.79   -11 Snow
08:00 Legend Double Dagger -2.6 -4.9 84 8 31 16.1 101.83   -10 Snow
09:00 Legend Double Dagger -2.8 -5.1 84 8 35 19.3 101.81   -11 Snow
10:00 Legend Double Dagger -2.9 -5.2 84 8 31 19.3 101.90   -10 Snow
11:00 Legend Double Dagger -2.7 -5.2 83 9 25 24.1 101.93   -9 Snow
12:00 Legend Double Dagger -2.7 -5.2 83 8 24 24.1 101.97   -9 Snow
13:00 Legend Double Dagger -2.4 -5.2 81 8 27 24.1 101.97   -9 Snow
14:00 Legend Double Dagger -2.2 -5.5 78 10 29 24.1 101.98   -9 Snow
15:00 Legend Double Dagger -2.1 -5.8 76 11 23 24.1 101.99   -8 Snow
16:00 Legend Double Dagger -2.0 -5.5 77 11 27 24.1 101.97   -9 Snow
17:00 Legend Double Dagger -2.0 -5.2 79 9 28 24.1 101.93   -9 Snow
18:00 Legend Double Dagger -2.0 -5.7 76 9 29 24.1 101.94   -9 Snow
19:00 Legend Double Dagger -2.0 -6.0 74 10 28 24.1 101.89   -9 LegendNANA
20:00 Legend Double Dagger -1.9 -6.1 73 11 29 24.1 101.87   -9 LegendNANA
21:00 Legend Double Dagger -1.9 -5.8 75 11 36 24.1 101.79   -10 Cloudy
22:00 Legend Double Dagger -2.1 -6.7 71 12 44 24.1 101.74   -11 LegendNANA
23:00 Legend Double Dagger -1.8 -5.5 76 11 36 24.1 101.67   -9 LegendNANA

Notes on Data Quality.

Legend

  • E = Estimated
  • M = Missing
  • NA = Not Available
  • ‡ = Partner data that is not subject to review by the National Climate Archives
Date modified: